Theta_e
338 340 327 323 324 327 326 325 323 323 323 321 320 321 324 327 327 325 322 323 323 323 320 321 322 329 322 323 321 322 323 322
321 320 322 324 325 326 327 326 323 322 323 321 318 319 320 323 322 324 321 319 319 322 318 318 318 320 318 317 317 318 320 321
321 324 326 326 325 327 328 326 322 324 321 322 318 317 320 319 319 324 320 318 317 322 317 318 317 320 317 316 315 317 319 319
323 324 324 324 325 325 325 326 322 322 321 319 318 315 320 318 320 322 321 318 317 321 317 319 317 318 319 316 315 316 317 316
322 324 324 325 325 325 323 323 323 318 318 321 320 320 319 318 320 321 322 320 319 319 318 317 318 319 316 316 316 315 316 316
324 325 325 326 326 323 322 324 322 321 320 319 318 318 317 317 318 317 318 317 318 317 316 318 319 315 314 314 312 313 312 312
324 325 325 324 323 321 320 320 321 319 317 317 317 316 316 316 315 314 315 318 318 315 314 315 314 313 313 311 311 310 311 312
324 324 325 323 322 321 320 320 320 317 317 317 315 314 315 315 313 312 314 315 317 314 313 313 312 311 310 310 309 310 310 311
325 325 323 322 322 321 321 319 318 316 316 314 311 310 311 313 311 314 314 314 317 312 310 311 311 310 309 309 308 308 308 308
323 323 322 321 320 320 319 318 316 315 316 316 312 311 312 313 311 311 312 314 314 312 309 309 309 308 308 308 307 307 307 307
322 321 320 320 319 320 319 318 315 315 315 313 311 311 310 308 309 308 310 314 313 311 310 309 308 306 307 306 307 305 306 309
322 320 317 318 320 320 318 318 315 315 313 311 309 307 306 307 307 307 309 310 310 311 310 309 307 306 305 307 311 308 308 308
318 318 320 320 320 316 316 316 315 314 312 312 310 308 307 307 306 305 305 307 308 310 309 308 306 306 307 307 308 308 308 307
321 322 322 317 314 316 317 315 314 315 316 315 310 307 305 304 304 303 304 304 305 306 308 306 305 305 306 306 308 304 304 307
318 316 310 309 313 315 315 316 314 313 312 309 307 305 304 304 303 303 303 302 302 304 305 304 304 305 306 304 303 303 305 305
308 307 308 309 308 308 309 309 309 307 306 305 306 305 305 305 307 305 303 302 303 304 305 304 306 305 306 302 301 302 306 307
305 305 305 307 306 306 306 306 305 305 304 304 305 305 305 304 303 303 302 303 305 305 304 303 307 305 304 305 302 303 305 305
302 303 303 303 304 303 303 303 302 302 303 303 305 304 306 305 303 302 302 302 302 301 302 303 301 303 304 301 301 301 302 303
301 301 301 300 301 300 301 301 301 301 301 302 303 304 303 302 301 301 301 301 300 301 302 301 303 305 302 302 304 305 304 304
300 299 299 298 297 297 297 299 299 301 301 301 300 301 301 300 300 300 301 301 301 301 301 301 301 304 303 300 302 304 304 303
Wind_Speed
16 15 16 15 9 7 6 9 6 7 4 2 2 3 3 3 5 5 5 4 4 4 3 4 5 9 5 7 8 6 8 8
18 17 15 13 11 9 9 8 7 6 3 4 4 4 3 2 2 3 4 3 4 4 3 4 4 3 5 5 4 5 7 9
14 16 13 12 13 10 9 8 7 6 7 5 5 4 4 4 3 4 3 4 3 3 4 3 4 4 4 5 5 5 8 7
17 16 14 13 12 10 8 9 8 8 6 5 4 4 5 5 4 4 3 4 4 3 4 4 5 4 5 5 5 5 5 6
20 17 16 15 12 11 11 9 8 8 6 5 5 5 6 5 5 6 7 6 6 6 5 5 4 4 6 5 5 5 6 7
18 18 17 14 14 11 9 9 8 8 7 5 4 5 4 5 7 5 9 7 6 5 4 4 5 5 4 4 4 4 5 5
15 16 16 15 14 13 10 10 9 8 7 6 6 7 6 4 3 3 5 5 6 4 4 4 6 4 4 4 3 3 5 6
17 16 14 15 13 12 12 9 10 8 6 5 4 4 3 2 2 3 4 4 5 4 3 4 4 4 4 4 5 4 5 7
14 15 15 13 10 11 9 9 6 5 3 4 3 1 1 1 1 4 3 4 4 4 3 4 4 4 4 5 4 6 5 4
16 14 12 10 9 7 6 8 6 5 4 2 3 3 3 3 2 3 3 5 5 4 4 4 5 4 6 6 5 6 4 3
12 12 7 9 10 8 9 8 8 6 5 3 2 2 2 3 3 3 4 5 5 5 5 4 5 4 6 6 6 6 7 8
10 8 5 6 5 8 8 7 7 5 6 3 4 3 3 3 2 3 4 5 6 5 5 5 5 4 5 5 7 6 5 8
10 9 5 8 5 3 5 7 6 5 6 7 5 4 1 1 2 4 3 4 6 5 4 5 5 4 5 6 7 6 4 6
7 4 3 1 6 7 6 8 6 7 4 2 2 1 1 1 3 3 4 3 4 5 5 5 5 5 5 5 6 6 5 5
7 4 5 5 7 7 6 6 3 4 5 7 6 4 1 3 3 3 5 4 3 5 5 5 4 5 5 5 5 6 6 6
4 8 8 13 14 10 9 8 8 7 6 5 4 3 2 2 3 3 4 3 4 5 5 6 6 5 4 5 4 4 5 5
15 14 13 11 12 12 10 10 8 6 5 4 4 4 4 4 5 4 4 5 4 5 6 6 5 6 5 5 4 6 5 6
13 13 12 10 9 8 8 7 6 5 5 5 4 5 6 6 6 6 6 5 4 6 6 6 6 6 6 5 5 6 5 4
11 10 8 7 6 7 6 7 8 7 7 6 6 6 6 6 5 6 5 5 5 6 5 6 7 7 6 6 7 7 8 7
8 6 5 4 4 5 6 6 6 6 6 5 5 6 6 6 6 6 5 6 6 6 6 6 6 7 5 6 6 6 7 7
Wind_Direction
153 154 139 131 124 98 86 85 63 75 78 74 88 84 70 63 77 85 76 61 32 22 7 6 357 1 358 356 350 347 338 336
141 128 125 128 121 104 89 88 81 69 61 59 57 47 43 64 30 93 62 40 24 13 353 347 358 342 342 345 337 318 330 335
117 121 125 128 108 104 99 95 79 59 51 41 34 32 40 22 7 56 64 34 6 318 320 335 334 340 340 338 330 339 338 337
129 130 129 116 115 107 96 79 69 64 53 30 20 30 34 29 27 43 35 350 342 305 323 320 317 353 332 330 329 334 322 322
140 140 136 135 130 131 112 102 87 65 51 37 40 38 39 47 32 12 13 356 356 355 335 330 338 336 328 339 335 330 324 315
146 145 140 137 131 119 104 97 81 78 73 62 53 42 43 32 33 25 12 359 21 4 354 343 327 319 316 324 308 307 302 295
149 145 137 130 125 122 111 95 92 93 83 78 61 45 39 31 43 20 6 8 359 10 350 317 317 320 320 317 310 294 309 295
150 142 134 134 135 129 123 120 125 120 112 97 71 57 36 45 15 8 17 333 347 348 341 330 331 327 311 316 313 304 295 291
141 140 136 131 129 128 127 123 131 112 92 101 83 112 266 277 326 327 339 328 343 353 324 339 331 325 310 311 283 302 308 292
148 143 141 143 132 129 120 124 144 128 116 134 152 177 218 215 282 294 322 346 355 356 352 335 339 326 318 308 306 309 295 306
147 144 142 133 138 149 152 154 155 133 125 108 43 14 358 348 309 296 303 24 357 337 339 338 327 317 315 299 295 295 307 315
145 149 112 119 177 178 143 148 134 128 139 144 178 203 205 234 269 284 339 14 320 321 340 330 317 307 303 299 311 295 288 313
75 83 151 191 178 95 110 111 124 161 186 193 181 205 241 300 274 334 333 303 301 314 328 306 305 308 300 295 315 324 314 319
123 133 3 223 154 137 123 132 180 206 212 198 181 187 114 341 305 321 303 292 299 313 312 309 303 303 300 314 310 313 303 300
264 139 148 85 86 97 130 169 229 4 60 68 70 60 54 302 307 282 313 313 307 308 307 313 294 299 301 314 312 303 300 305
71 57 66 55 45 31 34 41 53 55 54 56 61 37 353 333 309 317 305 296 294 285 294 298 290 298 308 313 306 293 294 303
77 69 61 55 50 40 33 34 35 33 31 35 9 354 350 327 317 328 335 305 292 314 307 301 331 321 301 307 303 303 299 295
70 64 58 54 50 41 27 18 10 359 5 359 353 343 340 333 331 328 316 303 317 318 311 326 322 313 315 308 299 288 291 296
76 69 60 53 49 37 12 357 351 349 356 352 350 336 329 324 325 314 301 305 305 310 314 313 311 313 323 318 311 317 322 315
98 98 96 81 61 36 16 353 343 339 328 345 332 323 325 324 311 296 305 298 296 291 295 308 302 317 341 343 341 338 346 341